Location: Bergnerzell
(49.1816°N, 10.2565°E)
Time: 22:32:30
(UTC+00:00)

Cosmos 1980 Rocket - Pass Details

Date: 23 May 2024
Orbit: 827 x 851 km, 71.0° (Epoch: 14 June)

Event Time Altitude Azimuth Distance (km) Brightness Sun altitude
Rises 01:05:10 0° 321° (NW) 3,427 5.7 -16.1°
Reaches altitude 10° 01:08:09 10° 307° (NW) 2,486 4.8 -15.8°
Maximum altitude 01:12:21 22° 259° (W) 1,799 3.6 -15.5°
Enters shadow 01:13:53 19° 237° (WSW) 1,903 3.5 -15.4°
